Theta_e
318 319 320 320 321 322 322 323 324 324 323 322 322 322 322 322 322 322 321 319 317 316 313 312 311 312 312 312 312 313 313 313 314 314 315 317 316 320 320 318 325 326 324 324 324 328 333 346 353 353 355 354 353 352 350 351 351 350 353 356 356 357 360 359 359 358 356 355 353 352 352 354 356 355 354 355 356 358 357 357 358 357 355 353 353 352 353 352
317 317 318 318 319 320 321 322 324 324 324 323 321 321 322 322 322 322 321 320 318 317 315 313 312 312 312 312 313 312 313 314 314 314 316 319 316 320 322 318 323 326 326 324 324 327 335 348 352 352 355 353 352 352 350 350 349 351 354 356 356 359 359 355 355 355 353 353 352 351 350 352 355 354 355 356 358 358 357 357 357 357 356 354 352 353 353 353
316 316 317 317 317 319 320 321 323 324 324 324 322 321 321 321 321 321 321 321 319 318 316 314 312 312 312 312 313 313 314 314 315 318 318 318 317 319 322 320 320 322 325 323 321 326 332 344 352 353 353 353 352 352 351 350 351 351 352 357 360 358 356 352 352 352 352 352 352 352 351 352 353 354 356 357 357 358 358 359 357 357 357 353 352 353 353 354
316 316 316 316 317 318 318 319 320 322 324 324 323 322 321 321 321 321 321 321 320 319 316 315 312 312 312 312 312 312 314 318 323 328 324 318 318 319 320 323 321 320 324 321 321 327 335 346 353 353 353 353 352 352 352 352 353 352 353 361 361 355 356 354 352 352 352 352 352 352 352 354 353 353 355 357 358 359 358 358 356 357 356 352 352 353 353 354
316 316 316 316 317 317 317 317 318 320 321 322 323 322 321 321 320 320 321 321 321 320 318 315 313 312 312 312 312 312 314 325 331 331 326 319 319 319 320 324 322 321 321 320 326 333 341 350 353 353 354 354 353 354 355 353 353 354 353 355 355 353 356 355 352 353 354 353 351 351 352 353 353 353 353 355 358 358 357 357 356 355 355 352 352 352 353 353
316 315 316 316 317 317 316 317 316 317 319 320 322 323 322 321 320 319 320 321 321 321 319 316 314 312 313 312 312 312 315 327 332 328 328 325 321 318 319 322 324 322 318 323 335 338 343 349 352 353 352 354 356 356 356 353 353 356 357 352 352 353 355 355 352 353 354 352 351 351 352 352 353 354 353 353 356 357 356 356 356 354 354 352 351 352 353 352
315 315 315 315 316 316 316 316 316 316 316 318 320 322 323 322 320 319 319 320 321 321 320 317 315 313 313 312 313 313 313 322 329 327 327 327 324 319 319 320 323 320 318 330 340 340 340 345 352 352 353 357 356 355 354 353 353 356 358 354 353 354 354 355 351 352 354 353 352 351 351 352 354 356 354 353 354 355 355 356 356 354 354 352 351 352 353 352
316 315 315 314 315 316 316 316 316 316 316 316 319 321 322 322 320 319 319 320 321 322 321 319 316 313 313 312 313 313 315 321 326 329 328 326 323 319 319 319 322 318 321 337 341 340 340 345 352 351 355 358 353 354 353 352 355 355 357 354 353 354 354 353 351 352 354 353 353 351 352 352 352 354 354 354 354 353 355 357 356 355 354 352 352 352 352 351
317 316 315 314 314 315 316 316 316 316 316 316 317 319 321 322 321 319 319 319 320 321 321 320 316 314 312 313 314 314 322 330 329 333 333 332 330 324 320 318 320 318 323 339 341 340 340 344 350 350 355 355 351 355 352 353 359 357 355 354 353 354 353 352 353 354 354 355 354 353 354 353 350 352 353 354 353 353 356 357 355 356 354 352 352 352 352 351
319 318 317 316 315 314 315 316 316 316 316 317 317 318 320 321 321 320 319 319 320 321 321 320 317 314 314 314 315 318 329 336 332 337 336 334 334 331 327 321 319 318 327 340 340 340 342 344 349 348 350 352 351 354 352 353 357 355 352 353 353 353 353 353 354 354 354 354 353 355 356 353 351 353 355 354 352 354 356 356 356 356 354 352 353 352 352 351
320 319 318 317 316 315 314 315 316 316 316 317 317 318 319 320 320 320 320 319 320 321 321 320 317 315 314 314 316 319 329 334 331 335 335 331 332 331 330 326 322 319 329 341 341 342 345 346 349 348 351 353 353 354 353 352 352 352 353 356 355 354 356 355 355 355 354 354 352 353 355 352 352 354 355 351 350 353 355 355 355 356 355 352 352 351 352 352
320 320 319 318 317 316 315 315 316 317 316 317 317 318 318 319 319 320 320 319 319 321 321 320 317 315 314 314 315 317 324 327 325 332 334 332 332 330 328 328 326 321 327 341 346 346 348 347 348 349 350 353 356 356 355 351 350 351 354 360 360 359 360 358 357 355 355 356 351 352 354 354 354 353 353 351 350 352 352 354 355 355 354 352 352 352 352 351
320 320 319 318 317 316 316 315 315 316 316 317 318 318 318 318 319 319 319 320 319 320 320 319 317 315 315 315 316 316 320 320 321 330 334 331 332 330 327 328 328 322 321 336 347 348 347 348 347 349 348 351 355 353 353 351 350 355 358 361 362 361 362 358 355 355 357 356 350 352 355 357 356 352 352 351 352 353 350 352 354 354 353 351 353 352 351 351
320 320 319 318 318 317 317 316 315 316 317 317 318 318 318 318 319 319 319 320 320 321 320 319 317 315 315 315 317 320 320 319 321 327 331 331 331 329 327 327 326 322 319 332 346 348 348 348 347 348 347 350 352 351 356 357 356 360 358 358 360 353 355 358 355 357 361 356 349 352 356 357 357 352 352 352 352 353 349 350 351 351 351 352 353 352 351 350
320 320 319 318 318 318 318 317 316 316 316 317 318 318 318 319 319 318 320 320 320 320 318 317 316 316 318 316 315 321 322 321 323 325 329 331 330 328 326 327 325 321 320 331 345 347 346 347 347 348 347 349 351 351 361 365 366 364 351 355 362 350 354 363 356 355 362 357 351 353 355 356 354 351 351 351 351 353 351 352 352 350 351 352 353 352 351 351
320 319 318 319 319 320 320 319 317 316 317 317 317 318 318 319 319 319 320 319 320 320 317 320 321 319 322 321 317 322 324 324 325 326 330 330 331 328 326 327 325 320 319 331 345 347 345 345 346 346 347 351 354 356 359 360 364 364 349 353 362 352 358 366 355 352 357 358 355 354 357 357 353 350 350 350 350 352 353 352 351 350 351 351 352 351 351 351
319 318 318 320 321 321 321 321 319 317 316 317 317 319 319 320 320 319 319 319 320 318 317 324 326 322 324 323 321 324 324 325 326 328 330 331 330 327 328 330 327 320 319 330 342 343 342 344 345 345 346 350 356 359 354 349 355 361 353 355 361 356 357 360 357 353 351 356 357 354 355 354 350 349 350 351 350 352 353 351 350 350 350 350 352 351 351 351
319 319 319 321 321 321 321 321 321 319 317 317 318 319 320 320 319 319 319 319 319 318 316 321 324 324 324 320 322 325 324 324 326 328 331 330 329 330 332 334 332 326 324 331 338 338 339 343 343 346 347 346 351 354 348 346 350 353 351 353 357 357 356 358 359 355 350 354 356 353 354 352 350 349 351 351 350 352 352 350 349 350 349 349 351 351 350 350
319 319 320 321 320 319 320 321 322 320 318 317 319 320 320 319 319 319 319 318 319 320 320 320 322 327 324 319 321 324 325 325 324 326 330 331 332 336 337 337 337 334 331 334 337 337 340 344 343 344 346 345 349 352 348 349 349 349 354 358 357 352 356 360 354 350 350 353 355 356 355 353 351 350 352 352 350 352 351 349 350 351 350 349 349 350 349 348
319 319 320 320 319 319 320 321 322 321 318 317 319 319 319 321 324 323 320 319 320 322 323 322 321 322 321 320 321 323 326 328 326 325 330 334 335 336 339 340 340 338 336 339 342 341 342 345 345 343 344 345 346 349 347 347 348 351 359 365 359 351 358 361 350 346 347 351 353 354 354 354 352 349 351 353 352 352 351 350 352 352 350 348 347 347 347 347
319 319 320 320 319 319 320 322 322 320 318 318 319 319 320 323 327 325 322 322 324 323 324 324 323 322 323 322 322 323 325 327 328 326 329 335 337 336 338 341 343 344 342 341 342 342 343 345 344 342 343 343 343 344 345 347 350 355 359 361 354 349 356 355 348 345 345 353 356 353 353 354 351 350 350 352 353 353 351 351 352 352 350 348 346 346 346 346
319 319 320 319 319 319 321 322 320 319 317 318 319 319 320 324 324 323 322 323 325 325 326 326 325 325 324 324 325 325 325 326 329 329 331 336 338 339 340 341 343 345 342 340 342 343 344 344 343 341 341 341 342 341 343 348 352 355 356 355 350 349 352 349 349 349 348 357 360 353 354 355 352 352 352 353 354 351 349 350 352 352 352 350 347 346 345 346
318 319 320 319 319 319 321 320 319 319 318 319 319 319 322 324 323 322 322 323 324 325 326 326 326 326 325 324 326 326 326 327 330 332 334 337 339 340 341 341 341 341 340 341 343 342 341 341 341 340 339 340 341 342 345 348 352 355 353 350 350 348 350 348 351 355 353 357 360 357 358 360 359 356 355 355 351 346 347 349 351 352 353 352 349 347 344 345
318 320 319 319 319 319 320 318 318 319 319 320 320 320 322 324 323 323 323 323 324 324 326 327 326 326 325 325 327 328 328 330 331 334 336 337 340 340 341 341 340 341 340 341 342 341 341 341 340 339 339 341 341 341 347 349 351 355 353 351 349 345 348 350 351 355 356 355 356 358 357 359 361 359 357 356 350 346 348 349 349 350 351 351 350 347 344 343
319 320 319 318 318 320 320 319 320 321 322 322 322 322 323 322 323 323 322 326 328 326 325 326 326 326 324 325 329 330 332 332 332 335 337 337 340 341 340 340 340 340 340 340 341 342 341 341 339 339 339 340 341 342 346 347 347 349 351 350 348 347 351 353 351 354 357 356 354 355 355 355 359 359 358 358 354 351 349 348 348 349 349 349 350 349 344 341
319 320 319 318 318 321 323 322 322 323 323 323 322 323 323 323 323 322 324 329 330 328 326 326 326 325 323 324 328 329 331 333 332 335 338 336 339 341 340 339 339 340 340 339 340 340 339 339 338 338 338 339 340 339 342 345 342 344 352 350 344 348 353 351 349 350 353 355 353 351 354 355 354 356 358 358 356 353 350 349 349 348 349 349 349 350 346 341
319 320 319 318 319 321 323 324 323 324 324 322 322 323 323 324 323 323 328 330 327 325 324 324 324 322 322 324 326 326 326 328 330 335 338 336 338 341 339 340 340 339 339 339 337 338 339 338 338 338 337 338 337 339 347 347 341 345 354 348 345 348 352 350 348 350 354 356 353 349 352 354 351 351 353 355 355 354 353 353 351 348 349 350 348 349 347 342
319 320 319 318 318 320 321 323 324 324 323 322 322 323 322 324 323 323 329 330 327 324 320 322 322 320 320 324 326 324 323 325 328 332 337 336 336 338 338 339 339 338 339 337 334 336 336 337 337 337 337 336 335 342 351 344 339 349 349 345 347 349 350 349 348 355 360 355 351 350 347 349 352 352 350 352 352 352 353 354 351 349 349 350 349 349 347 344
319 320 319 318 319 320 320 322 324 323 322 323 322 322 323 324 323 325 330 330 325 321 320 321 321 319 319 322 324 323 322 324 325 332 338 336 335 337 338 337 336 336 336 334 335 335 335 335 335 334 336 336 336 340 344 339 338 344 343 345 349 348 350 351 351 356 355 348 349 350 345 347 352 353 350 351 351 349 351 352 350 348 348 350 350 348 347 346
320 321 320 318 318 319 320 321 322 322 321 322 323 323 323 324 327 328 329 329 324 322 320 320 320 318 318 321 322 322 322 320 324 335 339 336 335 335 336 335 335 336 336 334 334 334 333 334 334 335 335 335 337 337 336 337 337 339 343 348 348 349 357 362 361 356 347 345 348 348 344 345 349 351 350 351 352 349 349 350 348 349 349 350 350 349 348 348
320 322 322 320 318 320 321 321 321 321 320 321 322 324 324 327 331 331 328 325 322 323 318 319 320 318 318 321 322 321 322 320 324 335 338 337 336 334 333 334 334 335 337 335 335 336 334 333 334 334 334 334 335 336 335 337 336 336 343 347 346 349 355 358 358 352 345 346 348 346 345 343 343 349 351 350 349 348 348 350 350 350 349 350 349 348 347 347
320 322 324 322 318 320 322 321 321 320 319 321 323 324 328 329 329 330 330 324 322 322 320 321 320 318 318 321 321 321 321 320 323 334 339 336 337 335 334 336 336 333 333 334 333 335 335 334 335 332 334 334 334 336 336 337 336 336 338 339 344 347 343 343 349 349 349 350 347 343 345 343 343 347 349 350 348 347 348 349 349 349 350 349 349 348 348 347
321 322 325 326 321 319 321 320 320 320 320 323 324 325 331 334 333 332 330 326 323 322 322 321 320 319 319 320 321 321 321 322 321 329 336 335 335 336 333 335 337 333 333 334 331 330 331 334 333 332 333 334 334 335 333 337 339 335 334 334 341 348 343 343 350 349 347 346 343 341 345 345 343 344 348 349 347 347 348 347 348 349 349 349 348 348 347 347
322 322 325 327 323 319 320 321 319 320 320 323 326 329 334 337 339 335 329 326 325 323 323 322 320 320 319 319 321 321 321 321 320 327 335 333 332 334 333 332 334 333 333 332 329 327 327 329 333 333 333 334 336 335 335 341 341 335 337 337 340 348 348 344 350 349 340 339 339 338 346 346 338 340 350 348 345 347 347 348 348 347 349 348 348 348 347 347
322 324 326 328 324 319 320 321 319 320 321 325 330 334 336 336 337 333 328 325 325 325 324 322 321 320 319 320 321 322 323 321 321 326 332 333 330 332 333 332 333 333 331 329 329 328 324 325 332 332 332 333 335 334 334 337 335 333 337 339 336 345 349 341 343 348 341 339 341 339 345 352 343 340 347 344 345 347 347 348 347 347 347 347 346 348 348 347
323 326 327 329 327 321 320 320 319 321 324 328 335 338 336 335 335 332 330 326 324 325 323 321 321 319 318 319 321 322 322 321 322 322 325 329 330 330 332 332 332 332 331 329 329 327 322 325 331 330 330 333 334 334 334 332 335 336 334 337 342 347 352 342 337 344 343 340 346 343 341 345 343 342 344 344 346 347 346 347 347 347 348 346 348 348 348 347
324 327 329 330 328 324 321 318 319 321 323 328 336 338 335 332 332 331 331 327 323 325 324 321 321 320 317 318 320 322 322 322 321 318 320 325 328 328 330 330 330 331 330 329 328 328 326 325 329 330 329 332 331 333 335 332 335 338 334 339 346 340 345 348 342 344 347 345 347 346 340 337 335 338 343 346 346 345 347 346 346 348 348 347 348 348 348 348
323 327 330 329 328 325 321 318 319 320 323 331 336 337 334 331 331 330 328 325 322 325 324 321 323 324 320 317 320 322 321 320 320 318 318 323 326 328 328 328 329 331 330 328 329 332 329 323 327 332 330 330 331 329 331 332 331 336 338 344 346 340 341 346 341 341 346 347 345 341 339 335 332 336 342 346 347 345 346 347 348 348 348 347 348 348 348 348
321 326 330 329 328 325 320 319 320 320 327 336 337 334 332 330 328 327 326 325 324 324 324 324 325 326 324 322 322 322 320 320 320 319 318 321 325 326 327 328 328 330 330 328 328 331 330 325 324 330 329 328 331 329 327 330 331 331 334 336 345 354 352 345 341 342 345 345 342 340 340 338 336 342 346 348 351 349 348 350 349 349 349 348 348 348 349 348
322 326 328 327 328 324 319 319 321 323 330 336 334 331 327 324 324 325 325 326 325 324 325 326 326 326 327 326 325 322 321 320 321 319 318 321 323 324 325 327 326 328 329 328 328 328 329 325 322 327 330 326 327 328 327 330 330 328 327 328 336 346 346 341 340 344 347 346 343 343 343 341 343 345 345 348 352 352 351 351 350 348 347 348 347 347 348 347
324 329 328 326 326 321 318 321 324 326 330 332 329 326 324 324 324 324 326 327 324 324 325 325 326 327 326 326 326 324 321 321 320 320 320 321 322 322 325 326 325 326 327 329 330 327 327 327 323 322 324 323 326 329 330 330 330 330 327 329 335 338 339 337 335 340 348 347 343 343 341 345 348 343 343 350 352 352 351 349 348 348 347 347 348 347 348 347
324 330 328 325 326 321 319 326 327 324 326 327 326 325 324 325 325 326 328 326 324 324 326 325 326 326 325 326 327 325 323 321 321 322 322 322 322 323 325 325 324 326 328 330 330 327 329 330 324 322 325 326 326 328 329 327 328 332 330 332 342 344 342 340 336 338 342 341 342 343 342 350 355 346 344 348 349 348 347 346 346 347 347 348 348 347 347 348
324 327 326 324 325 322 323 331 332 327 326 326 325 326 326 326 327 329 329 328 326 325 325 326 325 325 327 327 327 328 327 324 324 326 324 323 324 323 325 325 324 325 326 328 329 328 331 326 323 328 338 335 329 331 335 332 327 328 330 337 343 343 344 347 347 346 342 339 342 340 336 347 357 350 343 342 342 344 343 345 347 346 347 348 347 348 348 349
324 326 325 324 324 323 326 332 333 331 330 328 326 327 328 329 329 330 331 330 328 325 325 327 327 326 328 329 328 329 328 324 326 328 324 324 324 323 324 324 325 325 325 327 330 327 328 328 323 325 328 327 329 335 335 332 329 326 329 336 340 342 345 343 346 348 341 338 344 341 337 347 358 353 345 342 346 349 346 343 344 344 346 348 347 348 349 348
326 329 327 324 324 324 326 328 326 328 329 327 326 327 329 332 331 331 331 331 328 326 325 327 327 326 328 329 328 329 328 326 326 327 327 326 325 325 324 323 324 325 324 328 330 327 330 333 328 324 321 319 325 331 329 327 325 326 327 332 337 342 342 338 339 341 337 336 342 344 342 349 357 353 346 346 350 351 348 343 342 344 344 346 349 348 349 349
327 331 329 325 324 324 325 326 325 326 327 326 328 331 331 332 332 331 330 329 327 325 324 325 325 326 327 328 329 328 328 328 327 329 333 331 330 331 326 325 327 325 327 331 329 328 334 333 331 332 327 322 327 336 337 329 324 322 323 327 335 340 342 342 339 337 339 339 342 350 350 342 343 347 345 348 349 347 347 345 344 346 344 345 348 349 349 350
327 329 327 325 327 326 325 326 326 326 327 327 330 332 331 330 330 330 329 328 327 326 325 326 326 325 327 328 329 329 329 331 331 331 333 332 332 334 329 328 332 333 337 335 326 331 335 328 329 335 330 325 329 334 333 327 323 323 323 325 331 337 341 341 336 337 344 339 335 354 362 341 336 343 345 349 350 347 349 345 343 349 348 344 348 349 349 349
326 327 324 324 327 329 328 327 326 326 326 327 329 329 328 329 329 328 329 328 329 328 327 329 327 327 328 329 328 330 330 333 333 332 333 332 333 334 332 332 333 333 334 328 327 337 336 324 326 329 327 329 329 328 328 326 325 324 324 324 325 331 337 338 336 340 344 336 333 351 359 342 336 344 344 346 349 347 347 345 344 350 348 344 347 349 347 349
325 325 324 323 325 326 326 326 326 327 327 329 331 329 326 327 326 326 328 329 330 330 327 328 328 329 332 331 331 332 331 331 332 332 332 332 332 333 334 336 334 332 332 329 328 332 329 329 333 327 324 329 328 326 328 326 324 325 325 327 324 328 338 338 338 341 341 338 339 347 352 344 339 342 342 342 344 344 345 346 347 350 347 345 347 347 347 348
325 324 324 324 325 325 325 327 327 328 328 328 330 329 326 327 326 325 327 330 331 331 328 326 327 329 332 332 331 331 331 330 332 332 332 332 333 334 335 338 335 331 335 337 333 328 323 331 340 330 322 326 326 326 327 325 324 323 323 326 324 325 331 334 336 341 339 338 341 343 347 347 341 339 340 338 340 346 350 351 352 351 347 347 347 347 348 348
323 323 324 325 327 328 327 328 327 328 330 328 328 330 328 328 327 325 329 330 328 328 326 324 327 330 331 331 330 330 330 329 330 330 330 330 332 333 334 336 333 330 337 339 337 334 327 328 336 330 320 322 325 324 325 323 324 323 322 326 325 323 326 329 335 340 338 338 341 341 342 345 344 342 341 340 344 351 354 352 353 352 349 348 348 348 348 347
321 323 323 324 329 329 327 327 327 329 331 329 328 329 328 327 326 326 330 330 326 326 326 325 326 329 331 332 330 329 329 328 329 329 329 330 330 330 330 331 331 330 336 341 340 339 332 326 329 326 320 323 326 324 326 326 323 322 324 325 325 325 326 327 332 338 339 340 341 339 339 341 346 347 345 347 351 354 353 351 352 352 351 349 348 349 348 347
Wind_Speed
15 15 15 15 15 14 14 15 15 14 15 15 13 13 12 12 11 11 10 9 9 10 9 9 8 8 9 9 9 9 8 8 9 11 12 8 10 10 10 15 13 12 17 16 15 18 21 20 16 16 13 8 7 6 4 5 5 4 1 1 2 2 2 3 4 3 2 4 6 7 7 7 6 6 8 9 9 8 13 11 12 14 12 22 29 29 29 30
16 15 16 15 15 14 13 14 14 14 15 14 13 13 12 11 11 11 10 9 9 9 9 9 8 8 9 9 9 10 9 8 10 13 8 7 13 16 14 17 17 13 16 18 18 19 21 23 20 19 16 9 7 7 4 4 6 4 1 1 2 3 3 5 6 4 3 6 9 11 11 9 9 7 8 6 7 10 10 9 12 14 14 24 30 27 28 35
16 15 15 15 16 15 15 15 14 14 14 14 13 12 12 11 11 10 10 10 9 9 9 9 8 8 8 9 10 10 11 10 9 8 4 10 15 18 17 17 18 16 14 15 17 16 15 20 22 20 18 10 8 9 5 6 6 4 3 1 4 5 4 6 9 7 8 10 8 10 11 10 12 9 9 6 5 9 10 10 13 16 20 30 32 27 30 36
16 15 15 14 15 15 15 15 15 14 13 13 13 12 12 11 11 10 10 10 9 9 9 9 8 8 8 8 9 9 11 8 3 3 3 12 13 17 20 17 17 17 14 12 13 13 12 17 22 21 16 9 9 9 6 9 7 4 5 3 4 5 3 8 12 7 7 9 8 9 8 9 13 12 11 8 6 7 12 17 18 21 27 36 35 29 32 34
17 16 15 15 15 15 15 15 15 14 13 13 13 12 12 11 10 9 9 9 9 8 8 9 8 8 8 8 8 8 8 4 3 5 4 10 10 14 19 18 17 16 15 13 13 14 15 19 21 19 13 6 8 7 5 12 10 4 7 9 9 7 3 7 10 5 5 9 9 12 9 7 9 13 17 14 9 7 16 22 21 23 31 40 39 33 33 32
18 17 17 16 15 15 15 15 14 14 13 13 13 12 11 11 9 8 9 8 9 8 8 8 8 7 7 7 7 6 4 1 4 7 6 4 7 11 17 19 16 17 17 16 17 17 18 20 19 17 11 4 6 5 5 11 13 4 6 11 14 13 7 6 6 3 7 13 15 13 10 9 7 9 17 18 10 5 14 23 20 23 32 42 40 34 33 30
19 18 18 17 16 15 15 15 15 14 13 13 13 12 11 10 8 8 8 8 8 8 8 8 8 7 6 7 6 5 6 4 5 4 6 6 7 10 15 19 17 19 21 21 21 20 21 22 20 17 10 2 4 6 6 8 13 7 5 7 12 15 12 11 8 4 8 8 13 14 8 10 11 7 10 17 15 5 10 20 21 24 33 40 39 34 32 30
20 19 18 18 17 16 16 15 15 14 13 13 12 12 11 9 8 7 8 8 8 7 8 8 7 7 5 6 5 5 8 4 4 3 5 8 9 10 14 19 19 21 24 24 24 23 21 21 21 17 7 3 5 6 6 4 7 8 7 8 8 10 12 12 9 6 8 6 10 12 8 12 18 9 5 12 17 11 10 18 22 25 33 38 36 34 31 29
21 21 19 18 17 17 16 15 15 14 13 12 12 11 10 9 8 7 7 7 7 7 7 7 8 7 5 5 5 5 3 2 5 4 7 6 6 9 12 16 20 23 25 25 25 24 20 19 20 16 8 7 8 7 6 3 4 8 10 9 6 8 12 11 8 7 6 6 9 10 8 12 16 9 3 10 19 16 12 19 25 25 33 39 34 33 31 28
21 21 21 20 18 17 16 16 15 14 13 12 11 10 10 9 7 7 7 7 7 7 7 7 7 7 6 5 2 1 3 6 5 5 6 3 3 6 9 12 18 23 26 26 26 26 21 17 18 17 11 8 8 6 7 5 5 8 10 10 11 13 14 8 5 6 5 4 6 7 5 6 11 8 3 7 17 15 13 21 29 28 34 40 35 33 30 27
22 22 22 21 20 19 17 16 15 14 13 12 10 9 9 8 7 7 6 6 7 8 7 6 6 7 7 6 5 4 6 6 4 3 3 1 4 7 9 11 15 22 25 26 27 25 20 16 15 12 7 6 6 6 9 10 9 10 10 9 10 11 11 6 4 6 5 1 3 5 3 2 8 6 2 5 15 14 15 23 30 30 33 38 35 32 28 26
23 23 23 23 21 20 18 16 15 14 13 11 10 8 8 7 6 7 6 6 7 8 8 6 6 8 7 10 11 8 9 5 2 2 4 5 6 7 8 12 14 19 23 26 26 23 20 15 14 12 8 6 3 2 7 12 11 10 7 5 5 3 3 3 4 5 5 1 4 7 3 1 5 4 4 10 16 16 19 23 29 31 31 34 32 31 28 26
24 24 25 24 22 21 19 17 15 14 12 11 10 8 8 7 6 7 6 6 7 8 7 6 7 8 8 11 10 9 9 5 2 5 7 8 10 9 10 14 15 19 22 24 22 21 20 17 16 17 15 9 4 4 7 6 7 7 3 2 4 4 3 2 2 5 3 1 7 4 1 2 2 2 6 10 13 18 23 22 24 27 26 29 30 33 30 26
25 26 26 25 23 21 19 17 15 14 12 11 9 8 7 6 6 6 6 6 7 7 7 6 7 7 8 11 7 10 9 6 7 11 9 8 11 10 14 17 17 21 24 23 19 17 17 16 17 17 14 12 9 7 7 3 3 4 0 1 1 2 2 4 3 5 1 2 7 1 2 2 1 3 5 7 12 19 22 21 23 22 20 25 28 35 34 27
27 27 28 27 24 22 19 18 16 14 13 10 9 8 7 7 6 6 6 7 7 6 5 5 6 6 9 13 6 12 10 9 14 12 8 9 11 12 18 20 20 22 24 24 19 17 15 14 17 16 10 11 11 5 3 3 2 1 1 2 2 1 2 3 3 5 1 3 5 1 1 2 2 4 3 6 12 14 18 19 23 22 24 29 29 35 37 30
29 29 29 27 24 22 19 18 16 14 12 10 8 7 7 7 6 6 6 7 7 5 3 2 3 4 7 9 5 13 14 13 15 11 9 10 11 12 18 18 18 21 24 24 19 16 14 13 17 19 12 6 6 3 2 3 3 1 1 2 3 1 1 2 2 4 3 2 2 1 2 2 1 4 2 6 8 9 14 11 11 17 24 32 32 34 36 31
30 30 29 26 23 21 19 17 16 14 12 9 7 6 6 6 5 5 6 7 6 5 5 3 2 6 8 5 5 14 20 16 13 12 11 10 8 12 20 17 15 19 22 22 16 15 15 13 13 13 11 5 3 3 2 3 4 3 0 1 3 2 1 1 2 2 3 4 2 3 2 1 1 1 3 7 5 5 9 5 2 9 14 27 34 33 33 31
31 30 28 25 22 21 19 17 16 14 11 8 6 4 6 6 4 5 7 7 5 4 5 7 5 4 6 9 6 11 20 19 15 14 11 9 10 17 20 17 14 16 17 15 13 16 15 11 8 5 4 4 2 4 2 5 4 3 3 2 3 1 1 1 2 1 4 4 4 5 4 3 2 2 4 8 7 7 7 4 2 6 6 20 33 32 31 30
31 30 27 23 22 21 19 17 14 13 10 6 5 4 4 5 3 5 6 6 7 5 2 8 12 3 2 8 6 3 13 17 16 15 14 14 18 17 16 15 14 17 14 7 8 14 12 6 5 4 4 5 5 6 8 10 7 5 5 3 2 0 2 2 2 3 5 5 4 5 3 3 3 3 3 6 6 6 6 4 4 8 7 16 30 30 29 29
32 30 26 23 22 21 19 15 12 11 8 4 4 3 2 1 2 2 5 9 14 11 6 9 16 16 12 10 7 2 7 15 16 17 17 18 21 18 16 15 14 15 10 5 5 10 11 5 5 7 8 9 9 9 12 12 8 5 3 3 3 2 2 1 4 4 4 4 3 4 4 4 3 1 3 3 4 2 2 3 7 10 9 13 26 27 26 28
32 30 25 23 22 20 18 13 9 8 5 3 3 3 1 1 3 0 4 10 14 15 17 17 19 24 24 18 9 3 4 11 18 19 16 19 21 16 16 15 10 9 8 8 6 6 8 6 8 12 12 12 11 10 11 9 7 6 4 3 2 2 1 1 7 4 1 3 2 3 4 3 4 2 3 1 2 2 3 3 8 11 10 11 20 23 24 26
33 29 25 23 21 19 15 10 6 5 4 3 3 2 2 4 3 2 4 8 12 12 16 19 21 26 25 18 8 5 10 10 18 20 18 20 21 14 13 13 6 5 7 7 5 3 5 7 14 15 12 11 11 10 10 9 8 5 3 3 1 2 3 3 5 3 1 1 2 3 5 3 1 3 3 3 1 4 5 6 11 13 11 9 12 18 24 24
33 29 25 23 20 16 11 7 4 3 2 2 2 0 5 6 3 4 5 6 9 10 13 18 22 25 23 16 6 7 12 12 17 20 22 21 21 17 14 10 5 6 6 6 6 4 4 9 14 12 10 11 12 11 9 8 6 4 4 3 1 4 4 2 1 1 1 1 2 3 4 3 2 1 2 3 4 6 8 11 15 16 14 12 9 13 22 26
32 28 24 22 18 13 8 5 4 3 3 4 5 5 8 4 3 6 6 4 5 7 14 19 18 19 18 9 5 7 11 16 18 20 24 22 21 17 13 11 6 5 6 7 10 8 8 13 14 9 11 13 13 12 8 6 5 4 5 4 3 6 5 3 4 3 3 4 3 4 3 1 3 4 3 3 4 7 9 12 18 20 19 17 13 13 20 30
32 28 23 20 15 9 5 3 3 4 5 7 9 6 7 4 3 6 6 2 3 5 9 13 13 14 13 5 7 11 11 14 18 22 25 24 22 14 8 11 7 5 8 9 9 8 11 17 15 9 11 12 12 10 7 8 5 3 4 8 7 6 7 8 9 5 3 2 2 4 2 2 3 5 5 4 4 4 7 12 19 24 23 20 18 16 18 30
31 26 22 19 12 5 4 4 4 5 8 11 12 7 6 5 4 4 3 2 2 2 4 7 9 10 10 8 11 13 6 9 17 23 26 23 23 16 6 7 6 5 9 8 5 4 8 14 12 10 12 11 10 8 7 9 4 1 5 9 9 11 11 12 11 5 1 1 4 5 2 1 1 3 5 7 6 7 8 12 18 25 24 20 22 20 17 26
30 25 20 17 10 2 1 3 5 6 7 9 11 9 7 5 4 4 2 3 3 2 3 5 8 6 8 9 13 10 3 9 16 20 28 24 22 19 8 4 5 6 8 5 4 4 6 11 10 10 10 9 7 6 7 9 6 3 6 6 13 15 13 13 11 5 2 2 1 3 2 1 1 4 6 9 8 9 11 13 16 23 24 21 23 23 19 23
28 23 18 16 9 1 3 5 4 4 4 4 7 6 5 3 2 2 2 2 0 4 2 6 8 6 9 12 17 12 3 9 11 15 29 26 20 18 8 5 5 6 7 4 5 5 4 7 7 7 7 5 6 5 7 9 5 5 3 10 14 14 13 11 7 3 2 4 1 4 4 1 2 4 6 10 8 10 14 15 15 20 25 23 24 26 21 22
26 21 17 14 7 1 4 6 4 2 2 2 3 3 3 2 0 1 1 2 3 3 1 6 8 7 10 12 16 16 8 7 6 15 30 26 21 16 7 9 7 5 7 4 5 6 5 9 9 6 6 5 6 5 4 8 4 3 7 13 9 7 7 5 4 3 3 2 2 7 8 3 2 3 6 8 8 12 14 14 15 21 26 24 24 27 24 22
24 19 16 12 6 1 4 4 6 2 0 3 3 2 2 1 1 2 2 1 3 2 2 7 7 8 10 8 8 13 8 3 2 14 25 22 22 15 6 10 8 3 5 4 5 8 10 15 13 6 6 5 5 5 3 7 4 4 8 8 5 5 4 4 3 3 3 2 4 8 14 7 2 3 7 9 12 16 15 12 14 19 23 24 24 27 26 23
21 16 14 12 6 2 4 1 3 4 2 3 4 2 1 0 2 3 1 1 2 1 2 4 4 6 9 7 5 8 5 1 2 11 13 9 11 8 2 5 5 1 3 4 4 7 9 11 9 7 11 7 2 4 4 2 3 6 6 5 5 4 3 4 4 3 2 4 5 5 13 9 3 3 8 13 15 14 15 14 15 18 22 26 27 29 28 24
19 14 14 12 5 3 2 4 2 2 3 6 4 0 1 2 2 1 0 1 0 2 3 4 4 5 7 6 5 6 2 1 3 8 8 5 5 4 3 4 4 1 3 3 3 6 6 7 6 8 14 9 3 3 5 4 3 4 5 5 5 3 2 1 2 1 1 5 5 3 9 6 5 6 9 16 14 12 16 19 19 22 25 28 29 31 30 25
17 13 12 12 7 2 2 2 1 5 7 5 2 3 3 3 1 2 2 2 2 3 3 5 5 6 7 5 4 5 3 1 3 6 8 6 5 5 6 6 6 4 2 4 3 3 4 7 7 6 10 8 5 2 1 2 3 1 5 5 4 3 1 1 2 1 2 5 5 3 7 2 5 6 9 16 17 18 23 26 27 28 30 31 32 33 30 26
16 12 10 10 7 1 2 3 4 7 6 2 3 3 3 2 2 3 3 4 3 3 3 6 7 7 8 6 5 4 4 3 4 6 7 5 3 4 5 6 7 5 2 2 3 3 3 6 6 5 5 5 6 7 6 4 2 3 4 5 4 4 3 3 3 2 2 3 2 3 4 2 3 5 7 13 18 23 27 28 27 27 29 31 30 31 30 27
14 11 9 8 7 3 5 6 6 7 4 1 4 4 2 1 3 2 3 3 0 1 3 7 8 7 6 6 5 5 6 4 3 5 5 5 4 5 5 6 9 6 4 2 2 3 4 7 7 6 6 5 6 7 7 5 2 4 3 5 2 5 5 2 3 4 2 0 1 1 2 4 4 6 8 6 13 18 22 24 22 22 25 27 26 29 30 28
12 10 8 6 5 4 3 6 7 7 1 3 5 2 1 3 3 2 3 4 3 1 3 4 4 4 3 3 4 6 6 4 3 4 4 4 5 7 6 6 9 9 7 4 3 2 4 6 5 5 7 7 10 10 8 7 3 1 3 3 3 3 6 4 1 1 3 3 2 2 2 5 3 5 8 1 10 14 15 17 18 21 26 27 26 29 30 29
10 10 9 5 2 2 1 5 8 6 1 6 4 1 3 4 4 3 6 7 4 1 4 2 2 3 3 3 3 6 5 2 2 3 3 4 4 7 7 6 11 14 11 9 5 3 4 6 8 6 8 10 14 13 9 9 8 4 2 5 2 3 4 3 2 2 3 2 2 3 3 5 4 4 6 4 8 12 12 13 14 19 25 27 27 29 31 31
12 10 9 4 2 1 2 6 9 6 3 6 1 4 2 4 5 6 12 11 6 3 4 1 1 3 3 3 4 5 5 4 4 5 4 4 4 8 9 7 10 16 17 15 7 3 5 4 9 7 6 8 9 6 4 7 8 4 3 5 3 2 0 1 2 1 1 1 2 4 3 3 2 3 4 4 4 9 12 12 13 16 21 26 28 30 31 30
13 10 7 4 3 2 2 7 8 4 5 4 2 4 1 5 10 15 18 12 4 3 2 0 0 1 3 5 4 4 6 7 6 4 4 4 4 8 12 9 8 15 19 16 8 3 4 2 5 4 3 5 5 3 4 5 6 3 1 2 2 2 4 1 1 3 3 2 1 2 4 3 3 4 2 4 5 6 9 11 11 15 21 26 28 30 31 30
11 7 5 3 2 1 5 8 6 5 3 1 3 3 3 6 11 19 25 16 4 1 1 2 1 1 2 4 4 5 7 8 6 5 4 5 4 6 10 10 7 12 18 16 10 4 2 2 4 4 3 5 4 3 6 7 7 4 2 2 2 2 2 2 1 2 4 4 2 0 1 4 4 4 3 4 8 7 9 9 8 14 23 28 28 29 30 30
8 4 3 2 1 3 7 7 3 2 1 2 3 3 5 6 7 17 27 20 6 2 4 3 1 2 3 3 4 3 5 5 6 5 3 5 6 4 8 13 9 8 12 11 8 5 2 3 4 5 4 2 5 5 4 7 8 6 5 5 4 4 4 3 1 1 2 4 3 3 1 5 4 3 4 1 6 7 10 10 7 13 22 27 29 31 31 30
8 3 2 3 3 5 6 3 1 3 2 3 5 6 9 8 6 12 17 14 7 4 4 3 2 3 3 3 4 2 4 5 5 4 3 6 8 5 8 16 15 12 10 8 9 10 6 3 3 4 3 4 9 9 4 6 8 6 4 4 6 5 5 5 3 3 1 2 1 3 1 4 4 2 5 2 3 8 13 14 11 13 20 24 27 30 31 30
10 5 2 5 6 4 3 1 3 2 2 6 9 11 14 10 5 9 10 8 6 4 3 2 2 3 2 3 4 3 1 3 4 5 5 6 8 12 16 18 17 13 9 6 8 8 4 2 1 3 4 4 7 9 7 4 4 4 2 4 6 4 3 6 5 3 4 2 1 3 1 4 4 3 3 3 2 7 13 14 13 15 20 24 27 30 32 32
14 8 1 9 11 5 1 1 2 2 4 7 7 11 15 10 6 8 7 8 7 3 1 3 3 4 4 3 3 4 2 1 3 5 4 3 5 12 19 21 17 9 7 9 8 6 4 2 2 1 4 6 7 7 7 5 3 1 3 3 6 5 6 6 3 4 3 4 4 4 2 4 5 3 0 2 3 6 9 9 8 10 18 26 29 31 33 35
11 7 3 7 13 10 5 4 4 4 5 7 7 9 11 9 9 13 13 13 11 4 1 3 5 5 5 5 6 6 2 2 1 3 2 2 5 7 9 23 23 10 10 19 17 11 6 3 4 4 2 2 2 1 1 3 3 3 2 0 5 10 10 6 4 5 2 5 5 4 4 5 5 2 2 3 3 3 5 6 5 5 13 25 30 33 35 36
7 3 4 1 7 10 10 10 8 5 4 6 6 6 8 7 10 18 18 11 8 4 1 2 5 5 4 6 6 6 5 5 3 3 5 6 4 8 7 7 14 11 17 25 20 11 3 1 4 6 6 6 6 6 6 3 2 4 5 2 3 7 8 7 4 3 5 5 4 5 6 4 2 1 2 4 3 2 2 4 7 6 12 22 30 34 36 36
5 1 4 5 3 5 8 10 8 4 7 7 4 4 8 7 7 14 15 9 6 5 2 2 3 2 4 6 4 4 8 7 7 6 7 9 5 7 15 14 6 2 12 19 16 10 4 2 3 6 6 8 7 8 7 4 2 5 5 2 4 4 3 7 6 5 6 6 3 7 7 7 6 6 7 6 6 5 6 8 9 10 14 23 30 34 35 35
5 3 4 6 3 2 4 8 10 9 10 9 4 4 8 8 6 8 10 10 10 7 3 3 5 4 6 7 2 4 7 7 8 9 8 8 7 8 11 11 10 13 9 5 7 7 5 0 3 5 4 5 5 7 7 5 3 6 7 3 5 6 7 8 8 7 9 8 7 9 9 9 9 9 9 9 8 8 11 14 13 13 15 23 29 32 32 32
6 4 6 8 5 5 7 12 14 11 9 7 4 5 7 7 8 8 7 7 7 7 7 6 8 8 8 8 5 4 7 5 5 7 7 8 8 7 7 5 9 17 13 4 2 2 4 2 3 3 1 4 4 6 6 5 4 5 8 7 3 7 11 11 8 10 13 10 7 10 11 10 9 8 9 12 14 13 14 15 15 16 19 24 28 30 31 30
7 4 8 11 7 7 10 12 11 7 7 6 4 5 8 9 12 12 6 3 3 6 9 10 10 10 6 7 7 5 4 4 3 4 5 6 6 4 4 3 5 11 9 4 5 5 3 2 3 2 3 5 6 5 5 2 2 6 9 9 4 3 7 8 7 8 9 5 3 7 9 8 6 5 8 13 15 14 13 13 15 18 23 26 26 28 30 30
4 3 6 7 5 5 8 9 8 5 4 5 5 7 8 10 16 14 5 3 7 8 9 10 10 9 6 7 8 5 5 5 4 6 8 7 6 4 3 1 2 6 7 3 3 4 4 2 2 4 4 5 5 6 9 7 7 7 9 10 9 4 3 6 6 7 9 6 4 6 6 7 6 4 5 8 9 10 11 13 14 17 23 28 29 28 29 30
4 2 4 4 2 5 7 6 6 5 3 5 8 11 9 11 19 14 4 5 13 15 14 12 9 8 5 6 7 6 7 9 9 11 14 15 15 12 9 9 7 4 3 2 2 2 3 2 2 3 2 5 6 5 6 7 8 6 7 9 10 6 2 3 3 8 12 9 7 7 9 9 7 6 6 7 7 8 11 15 18 20 22 27 31 30 29 30
Wind_Direction
337 334 331 329 326 323 322 317 315 320 319 322 326 325 326 328 331 332 326 320 318 318 319 317 318 322 323 324 325 329 320 300 292 267 248 229 198 194 188 185 179 176 174 167 164 162 158 156 165 186 192 195 217 229 214 206 183 156 139 151 214 212 190 201 184 170 180 261 258 250 237 230 266 242 214 211 208 205 182 168 170 185 188 169 159 153 151 152
338 336 335 335 331 327 323 315 314 317 316 320 324 323 324 324 325 328 327 321 315 316 316 314 315 318 320 321 325 328 322 309 290 270 239 187 187 187 182 182 183 184 179 175 173 172 166 162 170 188 196 195 202 209 199 189 183 177 144 145 225 218 201 189 170 163 186 242 249 254 252 232 250 236 198 212 206 191 181 171 167 174 177 167 162 155 148 150
340 339 336 335 330 328 324 319 317 314 313 319 320 320 323 323 321 324 326 323 316 312 311 313 312 313 316 318 327 330 328 320 294 285 217 189 191 185 183 184 185 186 185 187 181 180 180 167 169 186 193 193 194 200 199 188 192 198 169 192 242 222 220 204 184 191 213 227 237 251 257 237 234 222 196 208 198 189 189 179 165 166 167 165 167 161 150 151
344 341 338 334 330 329 327 324 319 314 314 316 315 316 319 320 321 320 320 322 317 308 307 311 309 310 314 316 329 336 336 334 322 8 172 197 197 187 185 184 187 183 181 191 182 179 181 164 169 184 187 189 204 202 199 196 191 174 175 213 231 196 229 224 203 210 224 228 250 251 250 242 230 216 206 192 178 202 200 190 179 174 169 168 171 163 154 154
347 343 338 334 332 331 327 323 319 317 316 311 310 311 314 318 321 317 314 319 316 307 302 307 309 308 309 314 327 338 345 8 90 74 144 194 198 192 186 185 186 176 174 180 174 172 172 166 173 185 188 195 197 193 213 202 187 170 212 233 242 226 251 231 211 224 209 186 216 238 232 232 221 210 211 199 188 205 199 194 187 180 172 170 171 163 159 158
351 346 341 336 334 332 328 323 320 318 314 309 307 306 310 314 319 316 309 312 312 308 300 302 307 304 307 312 324 338 338 154 133 95 102 156 186 189 184 187 182 165 170 173 167 170 176 177 178 185 194 200 180 199 242 200 189 223 244 234 245 242 236 239 232 229 204 170 176 210 224 221 217 211 213 212 212 202 195 195 187 182 175 171 169 164 164 163
355 350 344 339 334 331 328 326 322 319 313 308 305 304 307 308 316 314 307 305 306 308 297 298 303 301 305 307 320 329 297 244 171 118 96 109 146 175 180 186 177 162 171 174 172 179 187 189 185 187 188 178 190 218 247 208 198 224 264 238 246 244 235 250 263 249 231 201 185 198 203 210 218 213 198 211 221 200 193 197 185 179 174 170 169 167 168 165
356 352 347 341 334 328 327 326 325 321 312 307 305 305 304 304 309 310 308 301 299 305 295 295 299 296 299 303 321 316 298 265 187 168 133 124 130 158 175 183 176 168 174 176 177 183 195 198 190 186 180 191 210 216 234 239 209 214 243 249 246 245 247 261 269 257 243 215 183 186 187 210 217 209 168 203 210 191 186 195 183 176 172 170 172 173 170 165
356 353 349 343 336 329 324 323 324 321 314 308 305 304 303 301 300 303 307 300 294 297 291 291 294 292 290 290 312 312 299 137 157 139 133 143 141 158 174 182 179 176 178 180 183 187 201 209 198 194 203 208 218 229 216 223 228 213 229 245 253 261 270 276 264 247 234 179 173 185 199 218 214 211 226 210 201 188 178 187 180 172 173 173 176 177 171 166
353 351 349 345 339 332 324 320 319 318 314 309 304 302 302 296 293 294 300 301 292 289 287 287 287 284 284 276 293 283 157 124 120 120 129 165 198 194 192 187 183 181 180 182 188 192 201 212 206 206 219 213 214 219 188 188 242 235 241 258 266 274 280 274 235 225 200 157 205 205 196 209 197 200 261 210 198 187 166 178 178 168 172 177 179 179 174 170
349 349 348 345 339 334 326 319 315 313 312 309 305 301 299 294 288 286 288 296 289 284 282 280 281 272 274 261 233 203 160 125 89 132 162 239 260 249 229 209 193 186 183 183 188 193 196 205 201 192 203 214 212 210 209 228 256 258 259 277 272 273 279 247 202 214 188 133 237 179 133 157 180 193 24 143 183 181 159 170 177 171 172 178 180 181 179 175
347 346 346 344 340 334 326 319 311 309 309 307 304 299 297 291 282 278 277 288 284 281 281 278 277 266 269 264 243 195 160 155 54 195 235 280 284 282 248 222 208 195 188 185 187 188 189 199 203 195 201 207 182 188 235 241 253 261 252 284 295 308 317 227 193 195 180 198 176 137 100 167 174 182 85 141 175 173 160 164 174 177 174 174 180 185 184 177
345 344 344 343 339 332 324 317 308 304 303 302 302 297 295 289 278 273 266 274 275 275 281 274 271 271 272 265 236 177 177 206 251 238 240 266 282 278 228 211 210 203 194 190 189 188 189 199 213 218 217 207 193 235 263 258 250 265 226 210 305 7 13 259 172 155 140 196 173 137 330 244 173 159 116 149 170 160 161 166 171 177 176 173 180 185 181 176
344 344 343 341 338 330 322 314 306 301 298 298 298 295 293 287 273 264 257 260 265 271 280 269 268 275 265 260 217 173 197 202 199 220 226 251 276 260 208 197 202 199 195 197 194 190 194 208 226 232 225 220 235 255 278 298 247 265 211 180 308 20 307 275 176 148 82 231 194 180 315 269 33 111 113 145 159 152 159 169 169 176 182 178 182 183 181 181
344 343 342 340 335 328 320 311 305 298 295 295 296 296 293 284 267 253 250 249 255 262 273 272 267 274 272 271 230 179 198 198 196 207 216 244 271 245 201 187 193 194 193 198 198 199 211 233 244 243 235 229 237 258 304 323 290 278 4 303 318 59 296 294 191 171 159 223 214 187 77 307 23 96 86 146 156 159 162 168 174 184 187 179 180 185 186 189
344 343 342 339 334 327 319 310 304 297 294 294 296 298 288 278 262 246 242 241 252 250 242 265 245 260 281 278 216 182 194 198 200 201 205 241 272 234 187 171 185 191 194 199 204 218 232 255 258 243 228 214 213 220 346 343 323 318 167 260 289 329 320 329 230 197 155 141 209 146 140 299 71 98 81 142 160 179 164 156 185 195 183 174 178 185 189 194
344 344 341 338 333 328 321 311 304 298 294 296 301 298 281 273 251 236 236 235 238 209 190 170 208 261 263 247 194 191 194 190 195 193 197 233 250 189 162 156 174 183 195 204 214 239 248 255 261 244 222 202 166 136 28 320 292 307 71 239 270 274 52 13 273 211 101 82 70 68 87 35 83 99 99 122 142 172 150 118 212 214 184 175 181 187 193 199
344 344 342 338 334 330 325 313 305 300 297 302 305 286 270 269 243 226 234 230 210 169 190 203 208 288 253 221 220 203 194 190 194 191 193 203 175 159 151 150 160 169 191 210 224 241 249 247 248 252 234 230 185 139 184 251 237 255 256 251 275 302 60 184 239 156 100 77 72 69 68 68 24 320 88 104 125 130 127 117 204 254 221 182 183 189 197 201
346 346 343 339 335 333 328 317 307 302 302 311 304 288 280 274 243 226 227 216 197 165 164 206 200 211 237 227 261 246 194 190 191 193 194 174 158 159 153 148 163 172 183 207 223 225 230 243 237 241 254 237 219 189 210 231 226 243 244 205 180 249 283 194 142 151 132 87 60 66 80 85 24 317 61 88 116 117 133 165 236 263 254 191 184 189 198 202
346 347 344 340 337 335 331 321 309 305 309 315 295 285 292 245 168 203 227 231 225 221 259 241 224 244 270 274 288 327 190 188 189 194 194 176 165 175 177 172 182 184 186 195 205 213 211 227 237 229 236 230 229 215 216 233 235 240 226 167 155 166 274 199 131 159 153 96 64 79 92 107 98 314 322 47 82 63 159 208 261 252 250 205 184 187 194 197
347 348 345 340 338 337 334 327 318 316 315 311 290 258 243 120 113 48 265 262 257 249 258 260 254 260 270 277 274 310 267 203 193 193 191 182 175 182 197 196 186 183 206 209 209 219 200 221 239 227 232 232 235 228 224 237 226 219 213 172 161 167 265 149 135 148 152 82 122 133 98 86 107 143 276 315 77 311 246 256 266 248 252 217 184 187 193 194
347 348 345 341 340 339 338 337 337 332 322 313 299 254 160 107 103 2 323 288 281 265 252 253 260 261 265 270 257 291 286 215 183 189 189 184 182 186 198 196 181 181 212 208 212 242 202 236 241 229 236 238 243 243 224 219 209 209 204 160 199 182 96 78 117 111 28 71 180 164 118 110 144 160 192 190 180 267 253 244 251 252 261 242 200 197 197 200
346 347 344 341 342 341 343 350 356 358 357 0 342 123 129 113 92 344 321 285 284 273 242 237 246 250 257 263 231 254 258 193 169 188 189 184 189 193 188 183 184 188 203 202 203 225 218 242 243 231 238 239 247 248 214 200 201 196 184 156 218 191 141 79 156 106 30 69 154 155 112 128 165 157 170 168 190 240 255 254 254 257 259 252 240 220 207 206
346 347 344 343 344 343 346 357 19 57 71 59 43 97 125 100 33 349 322 277 290 275 231 227 238 243 250 255 185 222 224 179 172 186 188 189 192 193 191 185 181 191 215 211 207 223 234 246 248 232 231 233 247 252 209 183 216 218 193 179 198 192 162 128 155 142 47 34 93 112 53 356 179 173 176 154 179 224 256 264 262 257 252 247 247 245 217 200
346 346 344 346 349 349 7 35 56 63 67 53 46 100 128 83 44 358 341 312 293 270 218 220 237 238 231 209 183 207 200 181 184 183 186 195 191 185 199 196 182 198 222 220 217 229 244 252 253 246 242 232 236 247 201 179 217 251 201 205 205 164 124 124 140 132 57 3 224 158 68 314 214 181 171 147 157 219 265 266 260 253 248 247 243 246 222 193
346 346 345 348 354 9 50 76 80 55 56 52 49 79 103 82 68 3 359 47 322 252 166 192 212 217 210 209 207 198 179 196 197 185 186 196 195 187 190 198 189 205 216 226 231 223 244 253 251 250 257 248 239 243 205 184 182 282 231 206 176 135 131 151 156 150 117 199 215 187 150 0 293 228 183 157 163 194 232 242 247 247 243 244 238 237 231 198
345 345 345 348 355 355 66 98 93 53 45 49 53 67 74 67 28 359 45 30 330 182 132 177 190 189 191 193 187 168 122 204 197 189 188 191 196 196 197 198 195 215 212 212 233 229 240 251 253 249 256 259 249 241 211 183 149 233 246 162 140 140 154 171 164 164 173 101 88 201 182 96 246 246 186 155 165 194 220 231 238 242 238 238 234 231 235 209
344 345 345 347 354 330 180 137 110 41 31 59 71 80 81 68 2 2 86 26 113 159 141 185 183 185 186 178 182 193 216 179 175 192 192 190 193 194 204 212 197 227 221 195 232 256 242 240 255 255 261 258 239 236 200 172 170 250 205 127 143 157 165 171 155 141 125 91 19 234 212 202 244 237 165 153 173 203 220 227 231 236 232 231 231 228 230 216
343 344 345 345 357 91 168 165 170 77 73 148 116 119 129 120 123 102 96 74 154 188 204 174 175 188 188 177 191 215 222 167 163 188 188 190 194 190 204 223 221 261 259 235 244 268 267 259 271 272 273 261 240 250 177 155 201 263 113 123 144 149 142 134 115 103 75 64 253 209 194 212 265 216 158 156 189 208 215 222 225 231 228 225 229 226 224 218
342 344 347 343 349 138 177 201 219 220 341 210 187 170 184 190 121 73 35 88 167 212 124 156 180 180 179 172 199 224 221 190 193 179 181 188 194 195 212 221 222 275 281 279 261 265 274 277 283 264 247 242 230 253 194 161 175 106 88 100 87 56 75 60 58 90 62 309 258 199 185 189 277 217 171 180 204 202 200 209 216 226 228 223 226 224 221 217
342 343 350 345 346 156 159 345 255 250 277 188 174 204 240 266 71 82 63 99 162 203 109 160 195 163 168 167 190 228 222 169 173 169 177 183 187 201 234 216 223 297 309 308 281 282 288 285 284 257 257 253 222 285 273 196 137 105 90 99 85 30 17 32 8 39 72 254 261 194 177 179 240 242 193 205 212 193 189 201 202 211 220 218 219 218 216 213
342 341 350 347 341 192 189 9 10 187 173 156 141 29 87 59 19 102 193 353 159 202 175 190 197 158 170 168 186 221 178 121 191 167 171 163 158 202 199 186 196 193 286 279 277 301 296 275 276 280 280 267 195 296 305 331 10 95 112 108 96 35 351 18 317 304 185 249 267 165 155 173 237 246 212 211 212 188 189 201 197 199 207 209 213 213 210 209
340 339 347 347 344 254 243 358 77 147 153 152 79 27 81 72 314 231 248 279 219 190 163 167 171 149 152 163 212 217 155 189 227 167 172 170 155 199 210 203 184 160 218 236 241 286 295 293 290 285 287 267 190 186 269 300 317 148 138 125 117 111 117 243 257 269 258 272 281 149 142 185 268 257 215 207 207 193 192 199 198 197 199 201 205 207 206 206
340 341 345 347 358 0 144 130 161 158 157 153 45 59 83 70 264 243 249 245 198 177 154 149 152 142 151 179 214 188 152 249 233 158 166 167 154 200 216 220 202 171 180 226 217 208 235 288 268 231 252 247 201 186 183 181 208 218 166 139 148 157 166 216 207 191 244 279 329 104 136 226 273 273 235 208 200 191 191 197 197 194 196 197 199 200 202 204
339 340 345 347 4 40 126 148 165 157 159 4 45 66 97 204 264 286 287 284 47 156 165 152 147 144 167 199 221 191 172 217 216 158 169 175 181 199 195 210 212 190 171 208 237 200 217 256 249 240 249 231 216 208 180 156 209 246 142 113 189 191 159 156 187 185 177 193 336 78 208 243 247 284 287 220 182 178 186 193 188 183 188 192 194 196 200 202
338 333 341 342 351 21 122 162 162 155 152 30 57 53 199 216 246 275 292 315 359 72 119 139 147 136 180 212 241 225 196 190 181 159 186 198 199 204 192 195 202 194 178 185 237 213 212 256 271 289 288 248 222 212 178 162 195 258 109 152 222 176 122 112 186 272 66 92 279 289 282 290 304 318 324 20 151 162 178 185 180 176 180 187 193 195 200 201
342 331 336 348 359 356 168 170 161 164 18 49 78 247 252 245 247 257 289 308 326 56 110 156 192 133 174 213 236 224 194 167 180 168 198 217 217 209 205 204 195 195 192 186 212 231 199 265 286 273 286 271 236 216 192 182 169 120 150 201 196 56 73 102 114 356 38 82 294 310 290 306 347 342 336 38 138 163 173 179 178 176 179 187 193 194 198 201
349 337 336 13 62 38 175 171 168 166 53 57 51 264 246 245 267 295 298 303 327 31 86 128 210 129 160 202 241 217 161 159 204 190 187 206 230 207 196 204 198 198 199 189 197 249 186 252 291 237 227 281 257 200 185 213 192 158 172 171 123 77 331 32 89 121 83 96 293 311 306 316 341 303 329 48 131 171 173 176 178 177 182 188 193 194 197 200
345 336 337 20 45 34 161 176 169 131 59 62 278 278 272 277 287 296 299 304 339 26 49 66 41 136 177 180 219 217 167 181 201 191 181 186 228 219 197 194 198 201 199 185 185 246 178 185 295 238 182 326 316 145 156 228 228 251 280 126 95 131 164 157 139 156 135 138 230 322 343 325 285 270 282 92 114 149 169 180 181 181 187 191 193 194 195 197
344 339 338 356 14 87 167 171 149 92 69 163 231 266 299 301 293 299 307 312 326 58 296 269 13 321 244 201 221 210 181 189 188 185 202 187 208 239 209 196 191 196 196 186 186 209 155 165 252 280 10 12 334 193 173 198 210 227 240 161 91 77 125 116 111 145 124 131 175 130 354 291 277 273 257 141 119 130 160 176 187 189 190 192 196 196 194 195
358 354 319 290 254 186 169 158 136 105 135 237 242 250 278 282 280 297 309 314 306 239 258 261 243 244 252 256 256 201 173 190 187 187 207 197 206 238 219 207 193 177 184 187 193 195 169 169 214 282 342 6 284 259 183 198 206 189 182 176 152 135 124 97 63 276 111 126 169 156 170 271 267 293 301 152 127 139 148 145 172 199 194 193 197 197 195 194
7 6 276 268 249 202 174 147 261 199 166 263 253 254 270 266 266 289 303 319 324 288 266 260 250 244 247 270 276 224 164 182 196 200 203 210 212 220 226 213 192 163 158 185 208 197 175 144 186 263 273 230 262 281 277 233 209 180 187 171 146 143 127 121 173 225 111 96 151 121 118 266 251 279 310 305 136 145 145 137 145 181 195 196 196 197 198 196
347 333 231 227 239 223 179 337 310 227 222 260 256 276 285 272 268 289 301 328 332 314 309 316 328 324 306 292 300 324 99 164 209 225 214 222 222 217 222 213 188 166 156 182 212 198 169 137 187 271 300 293 287 303 308 275 162 148 228 162 144 166 141 139 167 157 125 146 121 99 169 268 273 287 302 316 43 111 133 138 140 160 184 195 196 196 198 200
335 331 172 198 223 243 206 232 301 295 285 284 286 305 304 290 286 300 311 318 308 311 347 306 334 337 300 300 322 322 356 130 238 246 220 234 243 230 223 205 184 171 169 182 187 173 180 199 128 43 332 334 331 339 340 338 44 100 248 168 145 139 108 109 111 83 120 185 149 127 196 250 274 282 324 324 355 68 98 120 137 159 176 187 193 195 198 203
342 349 60 176 210 233 244 244 290 309 307 311 308 306 307 309 321 325 322 305 288 273 187 276 320 326 307 333 340 318 341 71 340 310 339 317 305 303 235 195 185 174 170 180 177 163 173 179 119 131 192 249 285 297 301 307 337 347 315 122 142 137 127 129 120 94 154 192 149 151 206 245 280 312 51 327 308 58 74 112 147 191 183 183 189 193 196 201
5 14 33 95 216 236 261 281 293 281 284 306 297 295 312 323 328 327 323 305 274 272 254 276 322 337 334 343 342 330 340 16 33 15 5 357 318 330 347 182 185 176 165 171 169 150 127 168 150 155 176 191 206 217 228 255 320 317 314 2 144 157 135 118 116 133 168 171 173 208 197 192 252 140 108 289 274 151 208 182 165 205 209 190 186 190 194 199
14 25 27 4 296 272 301 314 314 289 289 298 282 291 318 329 326 322 322 315 299 313 323 308 334 342 319 322 342 354 343 360 31 23 2 1 329 328 10 26 24 132 154 162 163 141 92 344 193 174 195 206 208 224 245 264 260 268 283 99 146 205 159 130 159 181 147 138 212 240 195 165 188 179 171 218 224 192 230 222 173 178 204 195 186 188 192 196
3 344 17 10 329 292 333 322 314 313 312 313 313 301 311 321 314 309 316 313 314 333 0 348 349 353 337 335 9 32 2 10 24 11 360 357 344 343 6 17 8 9 37 130 165 139 106 16 196 178 226 250 238 243 260 267 243 260 276 231 172 199 203 186 185 170 152 162 206 213 190 180 194 191 178 192 202 191 204 206 179 159 173 183 182 185 190 195
12 344 342 353 336 287 295 302 306 315 324 332 338 305 304 315 300 289 302 307 314 355 21 10 348 348 360 14 48 49 24 29 16 359 353 347 345 355 358 346 351 1 13 30 337 62 107 215 223 159 346 315 292 268 263 255 252 274 280 271 209 177 194 202 196 177 175 189 202 187 188 202 205 194 188 193 194 187 185 187 172 154 160 171 173 178 186 192
31 11 332 334 323 293 302 313 319 323 328 347 357 314 321 336 317 297 294 309 321 1 19 19 356 342 359 43 57 54 41 62 55 352 341 343 348 2 5 355 342 345 355 9 345 10 69 265 263 86 30 322 312 314 309 318 329 306 297 295 289 199 193 205 212 197 187 193 192 171 185 225 227 190 193 197 186 172 168 173 170 161 162 166 168 172 179 185
41 50 346 333 312 312 329 333 335 333 328 354 356 327 334 340 321 301 279 25 38 37 18 9 1 351 2 43 52 41 11 26 20 329 319 315 304 290 281 282 335 341 341 344 348 15 44 327 308 53 27 296 296 332 335 355 11 340 319 311 299 281 212 207 202 189 189 179 144 149 182 229 231 180 181 195 175 161 168 173 171 167 163 163 164 169 173 178
21 79 41 22 315 325 350 340 330 341 346 347 341 332 333 331 324 318 308 16 30 36 18 2 5 1 0 26 27 5 352 358 347 330 327 319 309 301 290 290 301 309 296 313 11 32 77 65 351 50 45 280 292 342 352 10 18 344 322 319 307 304 306 278 222 185 192 172 141 177 207 208 194 158 158 180 182 179 182 178 172 168 165 164 165 168 172 176